Novato Boulevard CA US current weather conditions

sailwx.info

Wind from 201 at 3 knots gusting 7

Air temperature 20.8° C
Dewpoint 13.6° C

Last reported at 2019-Aug-19 20:00 UTC.
Time now 2019-Aug-19 21:04 UTC

Location: N 38°08' W 122°42'.
View on Google Maps.

See reports from other nearby stations

  
Tides and Currents Weather Stations Pressure Air Temp Water Temp Dewpoint Dewpoint Depression Visibility Wind Speed Wind Dir Waves Ship Positions
date/time (UTC)wind fromknots sea level pressurealtimeterstation pressurevisibilityair tempwater tempwave heightnotes
2019-Aug-19 20:00 201 3 gusting 7 20.8
2019-Aug-19 19:50 149 2 gusting 6 20.3
2019-Aug-19 19:40 251 3 gusting 9 20.3
2019-Aug-19 19:30 184 2 gusting 9 19.3
2019-Aug-19 19:20 193 2 gusting 7 18.7
2019-Aug-19 19:10 162 4 gusting 8 18.2
2019-Aug-19 19:00 171 3 gusting 10 18.2
2019-Aug-19 18:50 206 4 gusting 8 17.6
2019-Aug-19 18:40 195 3 gusting 7 17.4
2019-Aug-19 18:30 243 4 gusting 7 16.8
2019-Aug-19 18:20 204 3 gusting 7 16.5
2019-Aug-19 18:10 233 3 gusting 7 16.0
2019-Aug-19 18:00 230 2 gusting 6 15.5
2019-Aug-19 17:50 221 3 gusting 7 15.2
2019-Aug-19 17:40 216 4 gusting 7 15.2
2019-Aug-19 17:30 213 3 gusting 7 14.9
2019-Aug-19 17:20 209 4 gusting 8 14.9
2019-Aug-19 17:10 187 4 gusting 6 15.0
2019-Aug-19 17:00 189 3 gusting 7 14.9
2019-Aug-19 16:50 173 3 gusting 6 14.6
2019-Aug-19 16:40 171 4 gusting 8 14.6
2019-Aug-19 16:30 195 2 gusting 6 14.3
2019-Aug-19 16:20 199 3 gusting 5 14.1
2019-Aug-19 16:10 173 3 gusting 5 13.9
2019-Aug-19 16:00 178 3 gusting 5 13.8
2019-Aug-19 15:50 171 2 gusting 5 13.7
2019-Aug-19 15:40 218 2 gusting 4 13.7
2019-Aug-19 15:30 206 3 gusting 5 13.7
2019-Aug-19 15:20 266 2 gusting 4 13.6
2019-Aug-19 15:10 220 2 gusting 4 13.4
2019-Aug-19 15:00 199 2 gusting 6 13.5
2019-Aug-19 14:50 239 1 gusting 4 13.4
2019-Aug-19 14:40 234 0 gusting 3 13.4
2019-Aug-19 14:30 272 0 gusting 2 13.4
2019-Aug-19 14:20 189 0 gusting 1 13.4
2019-Aug-19 14:10 228 0 gusting 1 13.3
2019-Aug-19 14:00 286 1 gusting 3 13.3
2019-Aug-19 13:50 296 0 gusting 2 13.2
2019-Aug-19 13:40 337 0 gusting 2 13.2
2019-Aug-19 13:30 330 0 gusting 2 13.2
2019-Aug-19 13:20 327 0 gusting 2 13.1
2019-Aug-19 13:10 298 0 gusting 2 13.1
2019-Aug-19 13:00 279 0 gusting 2 13.1
2019-Aug-19 12:50 217 1 gusting 3 13.1
2019-Aug-19 12:40 224 1 gusting 2 13.1
2019-Aug-19 12:30 243 1 gusting 2 13.1
2019-Aug-19 12:20 243 0 gusting 1 13.1
2019-Aug-19 12:10 250 1 gusting 2 13.1
2019-Aug-19 12:00 220 0 gusting 3 13.1
2019-Aug-19 11:50 164 0 gusting 1 12.9
2019-Aug-19 11:40 060 0 gusting 1 12.9
2019-Aug-19 11:30 112 0 gusting 2 12.9
2019-Aug-19 11:20 245 0 gusting 2 12.9
2019-Aug-19 11:10 254 1 gusting 2 12.8
2019-Aug-19 11:00 190 0 gusting 2 12.8
2019-Aug-19 10:50 212 0 gusting 1 12.7
2019-Aug-19 10:40 193 0 gusting 2 12.7
2019-Aug-19 10:30 214 1 gusting 2 12.6
2019-Aug-19 10:20 238 1 gusting 3 12.6
2019-Aug-19 10:10 198 2 gusting 4 12.6
2019-Aug-19 10:00 235 2 gusting 4 12.6
2019-Aug-19 09:50 245 1 gusting 5 12.6
2019-Aug-19 09:40 236 2 gusting 5 12.6
2019-Aug-19 09:30 225 2 gusting 5 12.7
2019-Aug-19 09:20 226 1 gusting 4 12.8
2019-Aug-19 09:10 227 2 gusting 7 12.8
2019-Aug-19 09:00 253 1 gusting 3 12.8
2019-Aug-19 08:50 214 1 gusting 4 12.9
2019-Aug-19 08:40 217 2 gusting 4 13.0
2019-Aug-19 08:30 200 2 gusting 4 13.0
2019-Aug-19 08:20 203 2 gusting 5 13.1
2019-Aug-19 08:10 205 2 gusting 4 13.1
2019-Aug-19 08:00 208 2 gusting 7 13.1
2019-Aug-19 07:50 199 3 gusting 6 13.1
2019-Aug-19 07:40 220 3 gusting 6 13.2
2019-Aug-19 07:30 214 3 gusting 6 13.2
2019-Aug-19 07:20 204 4 gusting 6 13.2
2019-Aug-19 07:10 214 3 gusting 6 13.3
2019-Aug-19 07:00 211 2 gusting 7 13.4
2019-Aug-19 06:50 198 2 gusting 6 13.4
2019-Aug-19 06:40 200 3 gusting 6 13.4
2019-Aug-19 06:30 197 2 gusting 4 13.4
2019-Aug-19 06:20 244 1 gusting 5 13.3
2019-Aug-19 06:10 289 0 gusting 1 13.1
2019-Aug-19 06:00 257 1 gusting 3 13.1
2019-Aug-19 05:50 198 1 gusting 6 13.2
2019-Aug-19 05:40 203 2 gusting 5 13.2
2019-Aug-19 05:30 197 4 gusting 8 13.2
2019-Aug-19 05:20 221 2 gusting 7 13.2
2019-Aug-19 05:10 218 2 gusting 6 13.2
2019-Aug-19 05:00 224 2 gusting 8 13.2
2019-Aug-19 04:50 199 3 gusting 7 13.1
2019-Aug-19 04:40 204 3 gusting 6 13.1
2019-Aug-19 04:30 222 3 gusting 7 13.1
2019-Aug-19 04:20 222 5 gusting 10 13.1
2019-Aug-19 04:10 221 5 gusting 11 13.1
2019-Aug-19 04:00 212 5 gusting 10 13.1
2019-Aug-19 03:50 213 6 gusting 11 13.3
2019-Aug-19 03:40 212 5 gusting 11 13.4
2019-Aug-19 03:30 217 5 gusting 8 13.5
2019-Aug-19 03:20 210 5 gusting 11 13.6
2019-Aug-19 03:10 213 7 gusting 11 13.9
2019-Aug-19 03:00 221 5 gusting 11 14.1
2019-Aug-19 02:50 233 3 gusting 8 14.4
2019-Aug-19 02:40 242 3 gusting 7 14.8
2019-Aug-19 02:30 221 3 gusting 7 15.1
2019-Aug-19 02:20 236 4 gusting 8 15.6
2019-Aug-19 02:10 227 4 gusting 9 15.9
2019-Aug-19 02:00 209 6 gusting 9 16.1
2019-Aug-19 01:50 214 6 gusting 11 16.5
2019-Aug-19 01:40 224 4 gusting 8 17.0
2019-Aug-19 01:30 226 5 gusting 8 17.5
2019-Aug-19 01:20 205 7 gusting 10 17.5
2019-Aug-19 01:10 207 8 gusting 11 17.6
2019-Aug-19 01:00 213 7 gusting 14 17.8
2019-Aug-19 00:50 212 8 gusting 13 17.7
2019-Aug-19 00:40 217 7 gusting 14 18.0
2019-Aug-19 00:30 217 8 gusting 15 18.1
2019-Aug-19 00:20 214 8 gusting 14 18.4
2019-Aug-19 00:10 211 8 gusting 14 18.4
2019-Aug-19 00:00 206 9 gusting 16 18.6
2019-Aug-18 23:50 207 9 gusting 15 18.4
2019-Aug-18 23:40 208 9 gusting 17 18.6
2019-Aug-18 23:30 206 10 gusting 16 18.9
2019-Aug-18 23:20 207 11 gusting 16 19.0
2019-Aug-18 23:10 209 10 gusting 18 19.2
2019-Aug-18 23:00 209 9 gusting 16 19.7
2019-Aug-18 22:50 215 9 gusting 14 19.8
2019-Aug-18 22:40 209 9 gusting 14 19.9
2019-Aug-18 22:30 214 9 gusting 15 20.1
2019-Aug-18 22:20 208 9 gusting 14 20.2
2019-Aug-18 22:10 208 9 gusting 16 20.1
2019-Aug-18 22:00 204 9 gusting 15 20.4
2019-Aug-18 21:50 210 9 gusting 17 20.6
2019-Aug-18 21:40 211 9 gusting 14 20.5
2019-Aug-18 21:30 211 10 gusting 15 20.0
2019-Aug-18 21:20 206 10 gusting 15 20.0
2019-Aug-18 21:10 206 10 gusting 17 19.9
2019-Aug-18 21:00 211 10 gusting 16 20.1
2019-Aug-18 20:50 210 10 gusting 16 20.1
2019-Aug-18 20:40 206 9 gusting 16 20.3
2019-Aug-18 20:30 208 10 gusting 14 20.5
2019-Aug-18 20:20 199 9 gusting 16 20.8
2019-Aug-18 20:10 200 8 gusting 13 20.7
2019-Aug-18 20:00 197 8 gusting 12 20.6
2019-Aug-18 19:50 198 7 gusting 11 20.6
2019-Aug-18 19:40 214 5 gusting 10 21.0
2019-Aug-18 19:30 228 4 gusting 9 20.7
2019-Aug-18 19:20 203 5 gusting 10 20.4
2019-Aug-18 19:10 203 7 gusting 11 20.1
2019-Aug-18 19:00 241 6 gusting 11 20.2
2019-Aug-18 18:50 238 4 gusting 7 20.3
2019-Aug-18 18:40 296 3 gusting 8 19.9
2019-Aug-18 18:30 312 3 gusting 8 19.5
2019-Aug-18 18:20 310 1 gusting 4 19.1
2019-Aug-18 18:10 313 3 gusting 7 18.6
2019-Aug-18 18:00 054 1 gusting 6 18.2
2019-Aug-18 17:50 046 3 gusting 6 17.7
2019-Aug-18 17:40 239 1 gusting 3 17.0
2019-Aug-18 17:30 217 1 gusting 4 16.8
2019-Aug-18 17:20 109 2 gusting 5 16.6
2019-Aug-18 17:10 097 2 gusting 6 16.4
2019-Aug-18 17:00 047 2 gusting 4 16.1
2019-Aug-18 16:50 023 2 gusting 4 15.9
2019-Aug-18 16:40 080 1 gusting 3 15.7
2019-Aug-18 16:30 130 3 gusting 5 15.7
2019-Aug-18 16:20 126 2 gusting 4 15.5
2019-Aug-18 16:10 148 1 gusting 3 15.4
2019-Aug-18 16:00 121 0 gusting 2 15.2
2019-Aug-18 15:50 142 1 gusting 2 14.9
2019-Aug-18 15:40 144 1 gusting 2 14.7
2019-Aug-18 15:30 342 0 gusting 2 14.5
2019-Aug-18 15:20 318 0 gusting 2 14.4
2019-Aug-18 15:10 312 0 gusting 0 14.2
2019-Aug-18 15:00 312 0 gusting 1 13.9
2019-Aug-18 14:50 323 0 gusting 2 13.8
2019-Aug-18 14:40 351 0 gusting 1 13.6
2019-Aug-18 14:30 332 0 gusting 1 13.3
2019-Aug-18 14:20 323 1 gusting 2 13.1
2019-Aug-18 14:10 316 2 gusting 4 12.9
2019-Aug-18 14:00 012 0 gusting 2 12.6
2019-Aug-18 13:50 319 1 gusting 4 12.2
2019-Aug-18 13:40 336 0 gusting 2 12.0
2019-Aug-18 13:30 296 0 gusting 0 11.7
2019-Aug-18 13:20 11.7
2019-Aug-18 13:10 11.6
2019-Aug-18 13:00 311 0 gusting 1 11.5
2019-Aug-18 12:50 316 0 gusting 1 11.4
2019-Aug-18 12:40 318 0 gusting 0 11.2
2019-Aug-18 12:30 359 0 gusting 0 11.1
2019-Aug-18 12:20 105 0 gusting 0 11.0
2019-Aug-18 12:10 136 0 gusting 0 10.9
2019-Aug-18 12:00 167 0 gusting 1 10.6
2019-Aug-18 11:50 269 0 gusting 0 10.2
2019-Aug-18 11:40 9.8
2019-Aug-18 11:30 9.9
2019-Aug-18 11:20 288 0 gusting 1 10.0
2019-Aug-18 11:10 176 0 gusting 1 10.2
2019-Aug-18 11:00 9.9
2019-Aug-18 10:50 160 0 gusting 0 9.5
2019-Aug-18 10:40 160 0 gusting 0 9.2
2019-Aug-18 10:30 160 0 gusting 0 9.4
2019-Aug-18 10:20 9.4
2019-Aug-18 10:10 160 0 gusting 1 9.4
2019-Aug-18 10:00 160 0 gusting 1 9.3
2019-Aug-18 09:50 160 0 gusting 1 9.3
2019-Aug-18 09:40 160 0 gusting 1 9.6
2019-Aug-18 09:30 160 0 gusting 1 10.0
2019-Aug-18 09:20 160 0 gusting 0 10.0
2019-Aug-18 09:10 160 0 gusting 0 9.9
2019-Aug-18 09:00 9.8
2019-Aug-18 08:50 160 0 gusting 1 10.4
2019-Aug-18 08:40 156 1 gusting 2 10.6
2019-Aug-18 08:30 166 1 gusting 2 10.4
2019-Aug-18 08:20 175 0 gusting 0 10.4
2019-Aug-18 08:10 176 0 gusting 1 10.7
2019-Aug-18 08:00 170 0 gusting 1 10.9
2019-Aug-18 07:50 164 1 gusting 2 10.8
2019-Aug-18 07:40 156 2 gusting 3 10.8
2019-Aug-18 07:30 186 0 gusting 1 10.4
2019-Aug-18 07:20 180 0 gusting 3 11.0
2019-Aug-18 07:10 177 0 gusting 2 11.0
2019-Aug-18 07:00 11.2
2019-Aug-18 06:50 11.8
2019-Aug-18 06:40 176 1 gusting 2 12.3
2019-Aug-18 06:30 177 1 gusting 2 12.5
2019-Aug-18 06:20 172 2 gusting 4 12.6
2019-Aug-18 06:10 191 2 gusting 4 12.6
2019-Aug-18 06:00 164 2 gusting 4 12.5
2019-Aug-18 05:50 141 1 gusting 2 12.4
2019-Aug-18 05:40 154 1 gusting 2 12.6
2019-Aug-18 05:30 149 1 gusting 2 12.8
2019-Aug-18 05:20 165 0 gusting 1 12.9
2019-Aug-18 05:10 150 1 gusting 2 13.0
2019-Aug-18 05:00 151 1 gusting 2 12.8
2019-Aug-18 04:50 151 1 gusting 2 13.0
2019-Aug-18 04:40 148 1 gusting 2 13.3
2019-Aug-18 04:30 153 1 gusting 2 13.4
2019-Aug-18 04:20 162 2 gusting 3 13.4
2019-Aug-18 04:10 144 1 gusting 3 13.5
2019-Aug-18 04:00 147 1 gusting 2 13.7
2019-Aug-18 03:50 148 1 gusting 2 13.8
2019-Aug-18 03:40 172 1 gusting 3 13.9
2019-Aug-18 03:30 163 2 gusting 4 14.1
2019-Aug-18 03:20 184 2 gusting 5 14.1
2019-Aug-18 03:10 165 2 gusting 4 14.2
2019-Aug-18 03:00 156 3 gusting 6 14.3
2019-Aug-18 02:50 044 1 gusting 4 14.4
2019-Aug-18 02:40 216 2 gusting 5 14.5
2019-Aug-18 02:30 203 4 gusting 7 14.7
2019-Aug-18 02:20 244 3 gusting 8 15.3
2019-Aug-18 02:10 209 3 gusting 10 15.3
2019-Aug-18 02:00 226 2 gusting 8 15.6
2019-Aug-18 01:50 210 4 gusting 9 15.6
2019-Aug-18 01:40 240 4 gusting 8 15.8
2019-Aug-18 01:30 247 3 gusting 9 16.0
2019-Aug-18 01:20 211 4 gusting 11 15.8
2019-Aug-18 01:10 222 5 gusting 14 15.8
2019-Aug-18 01:00 234 4 gusting 9 15.7
2019-Aug-18 00:50 205 8 gusting 15 15.5
2019-Aug-18 00:40 216 7 gusting 16 15.7
2019-Aug-18 00:30 209 7 gusting 17 16.0
2019-Aug-18 00:20 206 10 gusting 19 16.3
2019-Aug-18 00:10 213 9 gusting 16 17.4
2019-Aug-18 00:00 228 7 gusting 13 18.5
2019-Aug-17 23:50 220 5 gusting 13 19.3
2019-Aug-17 23:40 203 8 gusting 15 19.6
2019-Aug-17 23:30 204 8 gusting 15 20.6
2019-Aug-17 23:20 204 7 gusting 12 22.0
2019-Aug-17 23:10 196 9 gusting 15 22.4
2019-Aug-17 23:00 209 8 gusting 14 23.2
2019-Aug-17 22:50 206 7 gusting 12 23.6
2019-Aug-17 22:40 209 7 gusting 12 23.9
2019-Aug-17 22:30 215 6 gusting 11 23.6
2019-Aug-17 22:20 201 8 gusting 12 23.3
2019-Aug-17 22:10 206 7 gusting 12 22.9
2019-Aug-17 22:00 215 7 gusting 14 23.1
2019-Aug-17 21:50 214 6 gusting 11 23.2
2019-Aug-17 21:40 217 7 gusting 13 23.0
2019-Aug-17 21:30 213 7 gusting 15 23.2
2019-Aug-17 21:20 215 5 gusting 11 23.3
2019-Aug-17 21:10 216 6 gusting 10 22.7
2019-Aug-17 21:00 204 7 gusting 12 22.3